Location: Newark
(33.6333°S, 78.8500°W)
Time: 20:46:55
(UTC+00:00)

OTV 5 (USA 277) - Visible Passes

Search period start: 24 August 2019 00:00
Search period end: 03 September 2019 00:00
Orbit: 305 x 329 km, 54.5° (Epoch: 20 August)

Date Brightness Start Highest point End Pass type
(mag) Time Alt. Az. Time Alt. Az. Time Alt. Az.
28 Aug ? 10:27:15 10° N 10:29:09 17° NE 10:31:05 10° E visible
29 Aug ? 10:40:52 10° NNW 10:43:33 65° NE 10:46:16 10° SE visible
30 Aug ? 10:55:58 12° WNW 10:58:06 31° SW 11:00:39 10° SSE visible
31 Aug ? 09:39:55 18° ESE 09:39:55 18° ESE 09:40:55 10° ESE visible
01 Sep ? 09:54:33 21° SSE 09:54:33 21° SSE 09:55:38 10° SE visible
02 Sep ? 10:09:01 14° S 10:09:01 14° S 10:09:40 10° S visible
